Torna al catalogo

NOAA 16 DEB

AttivoSSO
NORAD 41398·DEBRIS·🇺🇸 United States

Lanciato Sep 21, 2000 da Vandenberg Space Force Base

Loading…

Prossimi Passaggi (prossime 24 ore)

TLE

AggiornatoSource: Space-Track

Epoca: Sep 14, 2026, 14:18 UTC

1 41398U 00055KB  26257.59587369  .00003473  00000-0  11332-2 0  9998
2 41398  98.8298  23.5319 0012525 313.9074  46.1078 14.39258588547113

Traccia NOAA 16 DEB in tempo reale con AllMySat

Download on the App Store